GW2922 Weather Reports


time (UTC)temp
C
wind
direction
speed
KPH
gust
KPH
rain 1hr
cm
rain 24hr
cm
rain mn
cm
humidity
%
barometer
mb
20260509064631 10 105 0.0 0.0 0.00 0.00 0.00 81 1025.1
20260509064129 10 105 0.0 0.0 0.00 0.00 0.00 82 1025.1
20260509063625 10 105 0.0 0.0 0.00 0.00 0.00 81 1025.1
20260509063117 10 100 0.0 0.0 0.00 0.00 0.00 81 1025.1
20260509062614 10 100 0.0 0.0 0.00 0.00 0.00 81 1025.1
20260509062111 10 112 0.0 0.0 0.00 0.00 0.00 80 1025.1
20260509061608 10 96 0.0 0.0 0.00 0.00 0.00 79 1025.1
20260509061105 10 95 0.0 0.0 0.00 0.00 0.00 79 1025.1
20260509060603 10 96 0.0 0.0 0.00 0.00 0.00 79 1025.1
20260509060058 10 93 0.0 1.6 0.00 0.00 0.00 79 1025.1
20260509055554 10 95 0.0 1.6 0.00 0.00 0.00 79 1025.1
20260509055050 10 100 0.0 0.0 0.00 0.00 0.00 79 1025.1
20260509054547 10 100 0.0 0.0 0.00 0.00 0.00 79 1025.1
20260509054045 10 96 0.0 1.6 0.00 0.00 0.00 79 1025.1
20260509053543 10 93 0.0 0.0 0.00 0.00 0.00 78 1025.4
20260509053040 10 90 0.0 0.0 0.00 0.00 0.00 78 1025.1
20260509052538 10 111 0.0 3.2 0.00 0.00 0.00 79 1025.1
20260509052035 10 94 1.6 1.6 0.00 0.00 0.00 79 1025.1
20260509051533 10 95 0.0 0.0 0.00 0.00 0.00 79 1025.1
20260509051030 10 101 0.0 1.6 0.00 0.00 0.00 79 1025.1
20260509050527 10 92 0.0 3.2 0.00 0.00 0.00 79 1025.1
20260509050023 10 93 0.0 1.6 0.00 0.00 0.00 79 1025.1
20260509045520 10 94 0.0 1.6 0.00 0.00 0.00 79 1025.1
20260509045017 10 94 0.0 1.6 0.00 0.00 0.00 79 1025.1
20260509044515 10 74 0.0 0.0 0.00 0.00 0.00 79 1025.1
20260509044013 10 78 0.0 1.6 0.00 0.00 0.00 78 1024.7
20260509043508 10 99 0.0 0.0 0.00 0.00 0.00 78 1025.1
20260509043005 11 96 0.0 1.6 0.00 0.00 0.00 77 1025.1
20260509042501 11 98 0.0 0.0 0.00 0.00 0.00 77 1025.1
20260509041956 11 97 0.0 1.6 0.00 0.00 0.00 77 1024.7
20260509041454 11 97 0.0 0.0 0.00 0.00 0.00 77 1024.7
20260509040952 11 112 0.0 0.0 0.00 0.00 0.00 77 1024.7
20260509040450 11 96 0.0 0.0 0.00 0.00 0.00 77 1024.7
20260509035946 11 99 0.0 0.0 0.00 0.00 0.00 77 1024.7
20260509035443 11 89 0.0 3.2 0.00 0.00 0.00 76 1025.1
20260509034939 11 94 0.0 1.6 0.00 0.00 0.00 76 1024.7
20260509034437 11 82 1.6 3.2 0.00 0.00 0.00 76 1024.7
20260509033934 11 97 0.0 3.2 0.00 0.00 0.00 76 1024.7
20260509033431 11 60 0.0 1.6 0.00 0.00 0.00 76 1024.7
20260509032928 11 87 1.6 3.2 0.00 0.00 0.00 76 1024.7
20260509032425 11 112 0.0 0.0 0.00 0.00 0.00 76 1024.7
20260509031923 11 94 0.0 1.6 0.00 0.00 0.00 75 1024.7
20260509031420 11 75 0.0 1.6 0.00 0.00 0.00 75 1024.7
20260509030917 11 90 1.6 1.6 0.00 0.00 0.00 74 1024.7
20260509030415 11 80 0.0 1.6 0.00 0.00 0.00 74 1024.3
20260509025912 11 110 0.0 3.2 0.00 0.00 0.00 74 1024.3
20260509025408 11 95 0.0 1.6 0.00 0.00 0.00 73 1024.3
20260509024903 11 115 0.0 1.6 0.00 0.00 0.00 73 1024.7
20260509024359 11 317 1.6 3.2 0.00 0.00 0.00 73 1024.3
20260509023856 12 69 1.6 3.2 0.00 0.00 0.00 71 1024.3
20260509023354 12 103 1.6 3.2 0.00 0.00 0.00 70 1024.0
20260509022850 12 106 0.0 3.2 0.00 0.00 0.00 70 1024.0
20260509022347 12 97 1.6 4.8 0.00 0.00 0.00 69 1024.0
20260509021844 12 344 1.6 4.8 0.00 0.00 0.00 68 1024.0
20260509021341 12 79 1.6 9.7 0.00 0.00 0.00 67 1024.0
20260509020839 12 316 3.2 6.4 0.00 0.00 0.00 67 1024.3
20260509020337 13 355 1.6 3.2 0.00 0.00 0.00 68 1024.0
20260509015834 13 296 3.2 6.4 0.00 0.00 0.00 68 1024.3
20260509015332 13 197 1.6 4.8 0.00 0.00 0.00 68 1024.0
20260509014828 13 180 3.2 4.8 0.00 0.00 0.00 68 1024.0
20260509014326 13 85 0.0 4.8 0.00 0.00 0.00 69 1024.0
20260509013822 13 89 1.6 4.8 0.00 0.00 0.00 69 1024.0
20260509013319 13 32 3.2 4.8 0.00 0.00 0.00 68 1024.0
20260509012815 13 2 1.6 3.2 0.00 0.00 0.00 69 1024.0
20260509012312 13 97 1.6 3.2 0.00 0.00 0.00 69 1024.0
20260509011809 13 65 3.2 4.8 0.00 0.00 0.00 68 1024.0
20260509011306 14 106 0.0 1.6 0.00 0.00 0.00 67 1024.0
20260509010804 14 324 3.2 4.8 0.00 0.00 0.00 66 1024.0
20260509010301 13 271 1.6 3.2 0.00 0.00 0.00 68 1024.0
20260509005758 13 89 1.6 3.2 0.00 0.00 0.00 68 1024.0
20260509005256 13 144 0.0 1.6 0.00 0.00 0.00 68 1024.0
20260509004755 13 117 0.0 4.8 0.00 0.00 0.00 68 1024.0
20260509004252 13 82 1.6 1.6 0.00 0.00 0.00 68 1024.3
20260509003751 13 61 1.6 3.2 0.00 0.00 0.00 68 1024.0
20260509003248 14 17 3.2 4.8 0.00 0.00 0.00 67 1024.0
20260509002745 13 108 0.0 1.6 0.00 0.00 0.00 68 1024.0
20260509002242 13 144 0.0 0.0 0.00 0.00 0.00 68 1024.0
20260509001740 13 53 1.6 3.2 0.00 0.00 0.00 69 1024.3
20260509001235 13 280 3.2 6.4 0.00 0.00 0.00 68 1024.3
20260509000734 13 0 3.2 3.2 0.00 0.00 0.00 68 1024.3
20260509000231 13 81 1.6 4.8 0.00 0.00 0.00 69 1024.3
20260508235728 13 47 3.2 6.4 0.00 0.00 0.00 69 1024.3
20260508235224 13 68 1.6 4.8 0.00 0.00 0.00 69 1024.3
20260508234721 12 81 1.6 3.2 0.00 0.00 0.00 70 1024.0
20260508234217 13 50 1.6 1.6 0.00 0.00 0.00 69 1024.0
20260508233712 13 341 1.6 3.2 0.00 0.00 0.00 69 1024.0
20260508233209 13 99 0.0 1.6 0.00 0.00 0.00 69 1024.0
20260508232706 13 93 0.0 3.2 0.00 0.00 0.00 69 1024.0
20260508232203 13 315 1.6 3.2 0.00 0.00 0.00 68 1024.3
20260508231701 14 14 0.0 1.6 0.00 0.00 0.00 66 1024.0
20260508231157 13 112 0.0 3.2 0.00 0.00 0.00 67 1024.0
20260508230654 14 55 1.6 3.2 0.00 0.00 0.00 66 1024.0
20260508230150 13 67 1.6 1.6 0.00 0.00 0.00 67 1024.0
20260508225649 13 147 0.0 3.2 0.00 0.00 0.00 68 1024.0
20260508225144 13 100 1.6 3.2 0.00 0.00 0.00 69 1024.0
20260508224642 12 355 1.6 4.8 0.00 0.00 0.00 70 1023.6
20260508224140 13 34 0.0 3.2 0.00 0.00 0.00 69 1024.0
20260508223637 13 140 1.6 3.2 0.00 0.00 0.00 69 1023.6
20260508223134 13 205 3.2 4.8 0.00 0.00 0.00 69 1024.0
20260508222632 13 73 1.6 3.2 0.00 0.00 0.00 69 1023.6
20260508222128 13 83 1.6 3.2 0.00 0.00 0.00 69 1024.0
20260508221625 13 275 3.2 4.8 0.00 0.00 0.00 69 1024.0
20260508221120 13 125 1.6 1.6 0.00 0.00 0.00 69 1024.0
20260508220617 13 188 0.0 1.6 0.00 0.00 0.00 68 1024.0
20260508220114 13 97 0.0 1.6 0.00 0.00 0.00 69 1024.0
20260508215611 13 10 4.8 6.4 0.00 0.00 0.00 68 1024.0
20260508215107 13 75 1.6 4.8 0.00 0.00 0.00 69 1024.0
20260508214605 13 67 1.6 4.8 0.00 0.00 0.00 68 1023.6
20260508214101 13 99 0.0 0.0 0.00 0.00 0.00 69 1023.6
20260508213558 12 282 1.6 1.6 0.00 0.00 0.00 69 1024.0
20260508213054 13 112 1.6 1.6 0.00 0.00 0.00 69 1023.6
20260508212551 13 78 0.0 1.6 0.00 0.00 0.00 69 1023.6
20260508212047 13 78 0.0 1.6 0.00 0.00 0.00 68 1023.6
20260508211543 12 113 0.0 3.2 0.00 0.00 0.00 70 1023.6
20260508211039 13 103 1.6 3.2 0.00 0.00 0.00 70 1023.6
20260508210536 12 159 3.2 3.2 0.00 0.00 0.00 70 1023.6
20260508210034 13 164 0.0 1.6 0.00 0.00 0.00 69 1023.6
20260508205531 13 90 0.0 1.6 0.00 0.00 0.00 69 1023.3
20260508205027 13 39 0.0 1.6 0.00 0.00 0.00 70 1023.3
20260508204524 13 297 3.2 4.8 0.00 0.00 0.00 68 1023.3
20260508204019 13 110 0.0 1.6 0.00 0.00 0.00 70 1023.3
20260508203515 12 80 0.0 6.4 0.00 0.00 0.00 71 1023.3
20260508203012 12 169 0.0 6.4 0.00 0.00 0.00 72 1023.3
20260508202509 12 95 0.0 1.6 0.00 0.00 0.00 71 1023.3
20260508202005 12 112 0.0 3.2 0.00 0.00 0.00 73 1022.9
20260508201502 12 150 0.0 4.8 0.00 0.00 0.00 74 1022.9
20260508200959 11 71 0.0 3.2 0.00 0.00 0.00 74 1022.9
20260508200456 11 110 1.6 1.6 0.00 0.00 0.00 75 1023.3
20260508195950 11 116 0.0 3.2 0.00 0.00 0.00 76 1022.9
20260508195448 11 352 3.2 4.8 0.00 0.00 0.00 76 1022.9
20260508194944 11 342 1.6 3.2 0.00 0.00 0.00 76 1022.9
20260508194442 11 206 1.6 3.2 0.00 0.00 0.00 76 1023.3
20260508193938 11 128 0.0 1.6 0.00 0.00 0.00 75 1023.3
20260508193435 11 111 0.0 1.6 0.00 0.00 0.00 76 1023.3
20260508192932 11 116 0.0 1.6 0.00 0.00 0.00 75 1022.9
20260508192429 11 63 0.0 3.2 0.00 0.00 0.00 74 1022.9
20260508191926 11 109 0.0 1.6 0.00 0.00 0.00 74 1022.9
20260508191423 11 111 0.0 1.6 0.00 0.00 0.00 75 1022.6
20260508190920 11 122 0.0 0.0 0.00 0.00 0.00 75 1022.9
20260508190417 11 102 0.0 1.6 0.00 0.00 0.00 75 1022.6
20260508185913 11 102 0.0 1.6 0.00 0.00 0.00 76 1022.6
20260508185411 11 108 0.0 1.6 0.00 0.00 0.00 76 1022.6
20260508184908 11 110 0.0 1.6 0.00 0.00 0.00 76 1022.6
20260508184405 11 98 0.0 0.0 0.00 0.00 0.00 77 1022.6
20260508183902 11 105 1.6 9.7 0.00 0.00 0.00 76 1022.6
20260508183358 11 59 0.0 3.2 0.00 0.00 0.00 76 1022.6
20260508182854 11 94 0.0 3.2 0.00 0.00 0.00 77 1022.6
20260508182351 11 102 1.6 3.2 0.00 0.00 0.00 77 1022.3
20260508181846 11 212 3.2 3.2 0.00 0.00 0.00 77 1022.3
20260508181343 10 111 0.0 0.0 0.00 0.00 0.00 78 1022.3
20260508180840 10 71 1.6 3.2 0.00 0.00 0.00 77 1022.6
20260508180337 10 96 0.0 1.6 0.00 0.00 0.00 78 1022.6
20260508175833 10 123 0.0 3.2 0.00 0.00 0.00 79 1022.3
20260508175330 11 93 1.6 1.6 0.00 0.00 0.00 79 1022.3
20260508174828 11 63 1.6 1.6 0.00 0.00 0.00 78 1022.3
20260508174325 11 96 0.0 0.0 0.00 0.00 0.00 78 1022.3
20260508173821 11 85 0.0 0.0 0.00 0.00 0.00 78 1022.3
20260508173319 11 90 0.0 1.6 0.00 0.00 0.00 79 1021.9
20260508172814 11 136 0.0 1.6 0.00 0.00 0.00 79 1021.9
20260508172312 11 108 0.0 0.0 0.00 0.00 0.00 79 1021.9
20260508171808 11 92 0.0 1.6 0.00 0.00 0.00 79 1021.6
20260508171304 11 103 1.6 1.6 0.00 0.00 0.00 79 1021.9
20260508170801 11 169 0.0 3.2 0.00 0.00 0.00 79 1021.9
20260508170259 11 97 1.6 4.8 0.00 0.00 0.00 78 1021.9
20260508165755 11 113 0.0 1.6 0.00 0.00 0.00 78 1021.3
20260508165253 11 95 0.0 1.6 0.00 0.00 0.00 78 1021.3
20260508164743 11 159 3.2 4.8 0.00 0.00 0.00 79 1021.3
20260508164240 11 165 4.8 4.8 0.00 0.00 0.00 78 1021.3
20260508163738 11 153 1.6 3.2 0.00 0.00 0.00 79 1021.3
20260508163236 11 125 0.0 3.2 0.00 0.00 0.00 79 1021.3
20260508162731 11 200 6.4 6.4 0.00 0.00 0.00 78 1020.9
20260508162228 11 70 1.6 1.6 0.00 0.00 0.00 78 1020.9
20260508161725 11 104 0.0 1.6 0.00 0.00 0.00 78 1020.6
20260508161222 11 112 0.0 1.6 0.00 0.00 0.00 78 1020.9
20260508160720 11 118 0.0 3.2 0.00 0.00 0.00 79 1020.9
20260508160218 11 95 0.0 1.6 0.00 0.00 0.00 78 1020.6
20260508155714 11 125 1.6 4.8 0.00 0.00 0.00 78 1020.6
20260508155211 11 150 0.0 6.4 0.00 0.00 0.00 79 1020.6
20260508154708 11 80 1.6 4.8 0.00 0.00 0.00 78 1020.2
20260508154205 11 60 1.6 3.2 0.00 0.00 0.00 79 1020.6
20260508153702 11 129 0.0 3.2 0.00 0.00 0.00 79 1020.6
20260508153159 11 83 0.0 3.2 0.00 0.00 0.00 80 1020.6
20260508152655 11 300 4.8 4.8 0.00 0.00 0.00 80 1020.9
20260508152151 11 98 1.6 1.6 0.00 0.00 0.00 81 1020.9
20260508151648 10 10 3.2 4.8 0.00 0.00 0.00 82 1020.6
20260508151145 10 45 3.2 4.8 0.00 0.00 0.00 83 1020.6
20260508150642 10 120 1.6 3.2 0.00 0.00 0.00 84 1020.6
20260508150138 10 76 3.2 3.2 0.00 0.00 0.00 84 1020.6
20260508145634 10 279 1.6 4.8 0.00 0.00 0.00 85 1020.6
20260508145131 10 135 1.6 1.6 0.00 0.00 0.00 85 1020.6
20260508144628 10 275 1.6 3.2 0.00 0.00 0.00 85 1020.6
20260508144126 10 111 3.2 3.2 0.00 0.00 0.00 85 1020.6
20260508143623 10 239 1.6 3.2 0.00 0.00 0.00 85 1020.2
20260508143120 10 143 0.0 1.6 0.00 0.00 0.00 85 1020.2
20260508142617 10 208 0.0 1.6 0.00 0.00 0.00 85 1020.2
20260508142113 10 125 0.0 1.6 0.00 0.00 0.00 85 1020.2
20260508141610 10 141 1.6 3.2 0.00 0.00 0.00 85 1019.9
20260508141108 10 96 0.0 1.6 0.00 0.00 0.00 85 1019.9
20260508140605 10 117 0.0 0.0 0.00 0.00 0.00 85 1019.9
20260508135557 9 101 1.6 3.2 0.00 0.00 0.00 86 1019.9
20260508135053 9 324 0.0 3.2 0.00 0.00 0.00 86 1019.9
20260508134550 9 143 0.0 0.0 0.00 0.00 0.00 86 1019.9
20260508134047 9 96 1.6 3.2 0.00 0.00 0.00 86 1019.9
20260508133544 9 217 0.0 1.6 0.00 0.00 0.00 86 1019.6
20260508133041 9 89 3.2 4.8 0.00 0.00 0.00 86 1019.6
20260508132539 9 59 1.6 3.2 0.00 0.00 0.00 86 1019.6
20260508132035 9 153 0.0 1.6 0.00 0.00 0.00 87 1019.6
20260508131531 9 101 0.0 1.6 0.00 0.00 0.00 87 1019.6
20260508131028 9 218 1.6 4.8 0.00 0.00 0.00 87 1019.6
20260508130525 9 64 3.2 4.8 0.00 0.00 0.00 87 1019.2
20260508130021 9 307 3.2 4.8 0.00 0.00 0.00 87 1019.6
20260508125517 9 252 1.6 4.8 0.00 0.00 0.00 87 1019.6
20260508125015 9 99 1.6 6.4 0.00 0.00 0.00 87 1019.2
20260508124512 9 267 1.6 3.2 0.00 0.00 0.00 87 1019.2
20260508124009 9 6 4.8 4.8 0.00 0.00 0.00 87 1019.2
20260508123508 9 6 3.2 4.8 0.00 0.00 0.00 87 1019.6
20260508123004 9 284 1.6 3.2 0.00 0.00 0.00 87 1019.2
20260508122501 9 30 1.6 3.2 0.00 0.00 0.00 87 1018.9
20260508121958 9 336 3.2 4.8 0.00 0.00 0.00 87 1019.2
20260508121456 9 337 1.6 4.8 0.00 0.00 0.00 88 1018.9
20260508120954 9 357 1.6 9.7 0.00 0.00 0.00 88 1019.2
20260508120451 8 133 0.0 3.2 0.00 0.00 0.00 88 1019.2
20260508115949 8 358 3.2 4.8 0.00 0.00 0.00 89 1018.9
20260508115447 8 5 0.0 11.3 0.00 0.00 0.00 89 1019.2
20260508114943 8 120 0.0 3.2 0.00 0.00 0.00 90 1018.9
20260508114440 8 121 1.6 4.8 0.00 0.00 0.00 91 1018.9
20260508113937 8 99 0.0 3.2 0.00 0.00 0.00 91 1018.9
20260508113434 8 359 0.0 6.4 0.00 0.00 0.00 92 1018.9
20260508112931 8 123 0.0 0.0 0.00 0.00 0.00 92 1018.9
20260508112428 8 57 0.0 4.8 0.00 0.00 0.00 92 1018.9
20260508111925 8 93 0.0 1.6 0.00 0.00 0.00 92 1018.9
20260508111422 7 83 0.0 0.0 0.00 0.00 0.00 92 1018.5
20260508110919 7 75 0.0 0.0 0.00 0.00 0.00 92 1018.5
20260508110416 7 84 0.0 0.0 0.00 0.00 0.00 92 1018.5
20260508105910 7 81 0.0 0.0 0.00 0.00 0.00 92 1018.5
20260508105407 7 128 0.0 0.0 0.00 0.00 0.00 92 1018.5
20260508104904 7 116 0.0 0.0 0.00 0.00 0.00 91 1018.5
20260508104401 7 113 0.0 0.0 0.00 0.00 0.00 91 1018.5
20260508103858 7 114 0.0 0.0 0.00 0.00 0.00 91 1018.5
20260508103355 7 136 0.0 0.0 0.00 0.00 0.00 91 1018.9
20260508102852 7 116 0.0 0.0 0.00 0.00 0.00 91 1018.5
20260508102351 8 105 0.0 0.0 0.00 0.00 0.00 91 1018.5
20260508101848 8 109 0.0 0.0 0.00 0.00 0.00 91 1018.5
20260508101345 8 115 0.0 0.0 0.00 0.00 0.00 91 1018.5
20260508100842 8 116 0.0 0.0 0.00 0.00 0.00 91 1018.5
20260508100341 8 117 0.0 0.0 0.00 0.00 0.00 90 1018.5
20260508095836 8 123 0.0 0.0 0.00 0.00 0.00 90 1018.5
20260508095334 8 139 0.0 0.0 0.00 0.00 0.00 90 1018.5
20260508094831 8 116 0.0 0.0 0.00 0.00 0.00 90 1018.5
20260508094328 8 116 0.0 0.0 0.00 0.00 0.00 90 1018.5
20260508093825 8 115 0.0 0.0 0.00 0.00 0.00 90 1018.5
20260508093322 8 112 0.0 0.0 0.00 0.00 0.00 89 1018.5
20260508092820 8 116 0.0 0.0 0.00 0.00 0.00 89 1018.5
20260508092318 8 128 0.0 0.0 0.00 0.00 0.00 89 1018.5
20260508091816 8 116 0.0 0.0 0.00 0.00 0.00 89 1018.5
20260508091311 8 116 0.0 0.0 0.00 0.00 0.00 89 1018.5
20260508090810 8 121 0.0 0.0 0.00 0.00 0.00 89 1018.5
20260508090308 8 136 0.0 0.0 0.00 0.00 0.00 88 1018.5
20260508085803 8 136 0.0 0.0 0.00 0.00 0.00 88 1018.5
20260508085300 8 137 0.0 0.0 0.00 0.00 0.00 87 1018.5
20260508084756 8 137 0.0 0.0 0.00 0.00 0.00 87 1018.5
20260508084254 8 119 0.0 0.0 0.00 0.00 0.00 87 1018.5
20260508083751 8 119 0.0 0.0 0.00 0.00 0.00 87 1018.5
20260508083248 8 119 0.0 0.0 0.00 0.00 0.00 87 1018.5
20260508082748 8 119 0.0 0.0 0.00 0.00 0.00 86 1018.9
20260508082246 8 119 0.0 0.0 0.00 0.00 0.00 86 1018.5
20260508081743 8 119 0.0 0.0 0.00 0.00 0.00 86 1018.5
20260508081240 8 131 0.0 0.0 0.00 0.00 0.00 86 1018.9
20260508080737 8 126 0.0 0.0 0.00 0.00 0.00 86 1018.5
20260508080235 8 125 0.0 0.0 0.00 0.00 0.00 86 1018.9
20260508075731 8 118 0.0 0.0 0.00 0.00 0.00 86 1018.9
20260508075228 8 109 0.0 0.0 0.00 0.00 0.00 87 1018.5
20260508074726 8 112 0.0 0.0 0.00 0.00 0.00 87 1018.5
20260508074223 8 98 0.0 0.0 0.00 0.00 0.00 87 1018.9
20260508073720 8 121 0.0 0.0 0.00 0.00 0.00 86 1018.9
20260508073218 8 125 0.0 0.0 0.00 0.00 0.00 87 1018.9
20260508072714 8 135 0.0 0.0 0.00 0.00 0.00 87 1018.9
20260508072211 8 113 0.0 0.0 0.00 0.00 0.00 86 1018.9
20260508071708 8 116 0.0 0.0 0.00 0.00 0.00 86 1018.9
20260508071206 8 120 0.0 0.0 0.00 0.00 0.00 86 1018.9
20260508070703 8 109 0.0 0.0 0.00 0.00 0.00 86 1018.9
20260508070202 8 114 0.0 0.0 0.00 0.00 0.00 86 1018.9
20260508065659 8 109 0.0 0.0 0.00 0.00 0.00 86 1019.2
20260508065157 8 317 1.6 4.8 0.00 0.00 0.00 87 1019.2